Regional Weather Roundup
Issued by NWS

Home | Current Version | Previous Version | Graphics & Text | Print | Product List | Glossary On
Versions: 1 2 3 4 5 6 7 8 9 10 11 12 13 14 15 16 17 18 19 20 21 22 23 24 25 26 27 28 29 30 31 32 33 34 35 36 37 38 39 40 41 42 43 44 45 46 47 48 49 50
000
ASUS43 KMKX 280200
RWRWI

WISCONSIN REGIONAL WEATHER ROUNDUP
NATIONAL WEATHER SERVICE MILWAUKEE/SULLIVAN WI
800 PM CST SAT DEC 27 2014

NOTE: "FAIR" INDICATES FEW OR NO CLOUDS BELOW 12,000 FEET WITH NO
SIGNIFICANT WEATHER AND/OR OBSTRUCTIONS TO VISIBILITY.

WIZ001-002-006>008-014>016-023>028-280300-
NORTHWEST WISCONSIN

CITY           SKY/WX    TMP DP  RH WIND       PRES   REMARKS
SUPERIOR ARPT  CLOUDY    24   9  52 SW8       30.02S WCI  15
ASHLAND        CLOUDY    19  13  77 SW9       30.01S WCI   8
HAYWARD        CLOUDY    12   9  87 S6        30.02S WCI   3
SIREN          MOCLDY    18  11  73 SW9       30.05S WCI   7
CUMBERLAND     PTCLDY    14  10  85 W9        30.04R WCI   2
RICE LAKE      PTCLDY    15  12  88 CALM      30.06S
CHETEK         PTCLDY    12  10  95 CALM      30.06S
LADYSMITH      CLEAR     14  13  93 CALM      30.05S
EAU CLAIRE     NOT AVBL
MENOMONIE      CLEAR     16  11  82 SW7       30.09R WCI   6
NEW RICHMOND   CLEAR     13   9  86 SW9       30.10R WCI   0
OSCEOLA        CLEAR     16  10  76 SW9       30.12S WCI   4
$$

WIZ003>005-009-010-017-018-280300-
NORTH CENTRAL WISCONSIN

CITY           SKY/WX    TMP DP  RH WIND       PRES   REMARKS
MANITOWISH WTR CLEAR     15  14  96 W6        29.97S WCI   6
ARBOR VITAE    CLEAR     19  16  86 W6        29.98R WCI  11
WOODRUFF       CLEAR     19  16  86 W6        29.98R WCI  11
RHINELANDER    PTCLDY    18  13  80 W13       29.98R WCI   5
EAGLE RIVER    MOCLDY    20  16  82 W5        29.95S WCI  14
LAND O LAKES   PTCLDY    20  17  87 W9        29.95S WCI  10
PHILLIPS       CLEAR     15  12  88 SW5       29.99F WCI   7
TOMAHAWK       PTCLDY    18  15  88 CALM      30.00S
MEDFORD        CLEAR     16  13  87 W7        30.01S WCI   7
MERRILL        MOCLDY    22  17  84 W9        30.01R WCI  11
$$

WIZ029-030-035-036-043>047-280300-
CENTRAL WISCONSIN

CITY           SKY/WX    TMP DP  RH WIND       PRES   REMARKS
WAUSAU         CLOUDY    22  16  78 W14       30.02R WCI   9
MOSINEE        MOCLDY    21  19  93 W14       30.04R WCI   8
MARSHFIELD     CLEAR     18  14  84 W6        30.05S WCI  10
STEVENS POINT  CLOUDY    23  17  78 W10G17    30.05S WCI  12
WAUPACA        CLOUDY    29  22  74 NW10G16   30.06S WCI  20
WAUTOMA        NOT AVBL
WISC RAPIDS    PTCLDY    22  15  75 W7        30.09R WCI  13
CAMP DOUGLAS   NOT AVBL
$$

WIZ011>013-019>022-031-037>040-048>050-280300-
NORTHEAST WISCONSIN

CITY           SKY/WX    TMP DP  RH WIND       PRES   REMARKS
ANTIGO         MOCLDY    22  19  86 W10       29.98R WCI  11
SHAWANO        CLOUDY    32  26  77 W5        30.02R WCI  28
OCONTO         CLOUDY    32  29  89 W6        30.00R WCI  26
STURGEON BAY   CLOUDY    32  28  86 W7        30.00S WCI  26
GREEN BAY      CLOUDY    33  27  78 W15       30.02S WCI  23
MANITOWOC      CLOUDY    34  30  86 NW10      30.01R WCI  26
APPLETON       MOCLDY    30  25  80 W17       30.04R WCI  18
CLINTONVILLE   CLOUDY    30  23  74 W10G18    30.03R WCI  21
OSHKOSH        CLOUDY    30  22  72 W15G21    30.04R WCI  19
$$

WIZ032>034-041-042-053>061-280300-
SOUTHWEST WISCONSIN

CITY           SKY/WX    TMP DP  RH WIND       PRES   REMARKS
LA CROSSE      CLEAR     22  15  75 SW10      30.14S WCI  11
SPARTA         PTCLDY    23  18  82 W3        30.12S
VIROQUA        CLOUDY    23  22  96 W10       30.10S WCI  12
BOSCOBEL       CLOUDY    25  18  74 W9        30.15S WCI  15
PRAIRIE DU CHI CLOUDY    23  16  75 NW13      30.16S WCI  11
PLATTEVILLE    CLOUDY    26  22  85 W6G20     30.14R WCI  20
$$

WIZ056-057-062-063-064-067-068-280300-
SOUTH CENTRAL WISCONSIN

CITY           SKY/WX    TMP DP  RH WIND       PRES   REMARKS
REEDSBURG      CLOUDY    26  21  79 W14       30.09S WCI  15
BARABOO/DELLS  CLOUDY    28  22  79 W9        30.08S WCI  19
LONE ROCK      NOT AVBL
MINERAL POINT  CLOUDY    28  25  86 W12       30.10R WCI  18
MADISON        CLOUDY    30  23  75 VRB5      30.09R WCI  25
MIDDLETON      CLOUDY    32  25  75 W8        30.09R WCI  24
WATERTOWN      CLOUDY    31  26  81 W12G17    30.07R WCI  21
MONROE         CLOUDY    30  27  86 W16G22    30.08F WCI  19
JANESVILLE     CLOUDY    32  25  74 W13       30.08F WCI  22
$$

WIZ051-052-058>065-066-070>072-280300-
SOUTHEAST WISCONSIN

CITY           SKY/WX    TMP DP  RH WIND       PRES   REMARKS
MILWAUKEE      MOCLDY    34  24  67 NW13      30.06F WCI  25
WAUKESHA       CLOUDY    30  27  86 W12       30.06F WCI  21
MILWAUKEE/TIMM CLOUDY    32  25  74 W12       30.05F WCI  23
RACINE         CLOUDY    34  25  69 NW8       30.07S WCI  27
BURLINGTON     MOCLDY    31  26  81 W7        30.07R WCI  24
KENOSHA        CLOUDY    34  27  75 NW9       30.06R WCI  27
FOND DU LAC    CLOUDY    31  24  75 W13       30.05R WCI  21
SHEBOYGAN      CLOUDY    32  27  81 W13       30.03R WCI  22
WEST BEND      CLOUDY    32  27  80 W12       30.05R WCI  23
JUNEAU         CLOUDY    29  25  82 W9        30.07S WCI  21
$$

LSZ147-162-280300-
LAKE SUPERIOR

STATION/POSITION TIME  TEMP    WIND        PRES    WAVE
                       AIR SEA DIR/SP/G            HT/PER
                 (UTC) (F)     (DEG/KT/KT) (MB)    (FT/S)
DEVILS ISLAND    0100   26     260/ 16/ 19 1016.4F
PORT WING        0100   23     200/  6/  9 1016.6
SAXON HARBOR     0100   20     190/  2/  4 1016.6R
$$

LMZ867-665-643>646-280300-
LAKE MICHIGAN

STATION/POSITION TIME  TEMP    WIND        PRES    WAVE
                       AIR SEA DIR/SP/G            HT/PER
                 (UTC) (F)     (DEG/KT/KT) (MB)    (FT/S)
CHAMBERS ISLAND  0100   33     270/  4/  6 1015.2R
NORTHPORT PIER   0100   33     290/  8/ 18 1014.9R
SISTER BAY       0113          330/ 12/ 13   N/A
ALGOMA LAKESHORE 0115          320/  4/  8   N/A
KEWAUNEE LAKESHO 0100   34     300/  4/  6 1014.8R
SHEBOYGAN LAKESH 0100   34 38  290/ 12/ 14 1017.4R
PORT WASHINGTON  0100   34     270/  8/ 20 1018.3
MILWAUKEE LAKESH 0100   35     280/ 12/ 17   N/A
KENOSHA   LAKESH 0100   35     300/ 10/ 15 1017.9R
$$

TC  - TEMPERATURE IN CELSIUS
VSB - VISIBILITY IN STATUTE MILES
WCI - WIND CHILL INDEX
HX  - HEAT INDEX




USA.gov is the U.S. government's official web portal to all federal, state and local government web resources and services.